Lid_Strength_Index
-2 -2 -2 -2 -2 -2 -1 -2 -1 -1 -1 -1 -1 -1 -1 -0 0 3 5 3 3 0 2 3 5 5 4 4 6 6 11 12 13 12 12 10 11 10 8 8 7 6 5 4 2
-2 -2 -1 -1 -2 -2 -2 -2 -1 -1 -1 -1 -1 -1 -1 -0 2 3 1 -0 -1 0 4 5 6 6 6 6 7 9 12 11 10 9 11 9 10 10 10 9 9 7 4 3 2
-2 -2 -2 -2 -1 -1 -2 -1 -1 -1 -1 -1 -1 -1 -1 0 4 4 -1 -1 -1 0 3 4 5 5 7 7 8 9 11 8 9 10 9 9 11 10 10 11 9 8 6 4 4
-1 -1 -2 -2 -1 -1 -1 -1 -1 -1 -1 -1 -1 -1 0 2 11 2 -1 -0 -1 2 4 4 6 7 8 9 7 10 8 8 9 9 10 10 10 11 12 12 9 5 4 4 4
-1 -1 -1 -1 -1 -1 -1 -1 -1 -1 -1 -1 -0 -1 1 5 6 1 -1 -1 1 4 6 5 6 7 9 8 7 9 8 8 10 10 10 10 11 12 13 11 7 4 4 4 4
-1 -1 -1 -1 -1 -1 -1 -1 -1 -1 -1 0 0 -1 3 9 1 1 0 2 3 5 6 5 5 5 8 8 8 7 7 10 11 10 10 10 11 10 10 11 8 5 5 5 4
-1 -1 -1 -1 -1 -1 -1 -1 -1 -1 -1 -1 1 3 5 6 2 1 1 3 4 3 6 5 4 5 7 9 6 7 9 11 11 11 11 10 11 11 10 10 10 8 5 5 4
-1 -1 -1 -1 -1 -1 -1 -1 -1 -1 -1 -1 1 4 9 1 2 3 2 4 5 5 4 5 4 5 6 6 7 9 10 13 10 11 10 10 13 10 8 9 10 10 10 5 4
-1 -1 -1 -1 -1 -1 -1 -1 -1 -1 -1 -1 2 6 9 1 3 3 3 5 6 6 4 4 4 6 7 10 12 11 15 13 11 10 11 11 12 9 8 9 9 10 9 8 6
-1 -1 -1 -1 -1 -1 -1 -1 -1 -0 0 -0 1 8 7 6 3 3 5 4 7 6 7 6 8 9 9 11 17 15 15 13 12 11 12 13 12 10 11 9 9 9 9 9 8
-1 -1 -1 -1 -1 -1 -0 2 5 6 4 7 7 10 8 5 1 4 4 5 6 7 11 8 11 13 11 10 10 11 13 13 11 10 12 13 13 11 10 11 11 10 10 10 9
-1 -1 -1 -1 -1 -1 1 5 5 5 9 4 4 6 6 6 7 5 4 7 8 11 9 11 13 10 9 9 10 11 13 13 12 11 12 12 12 11 10 9 10 10 10 9 9
-1 -1 -1 -1 -1 0 2 3 1 2 9 7 5 8 8 7 8 7 5 7 9 11 10 12 11 8 9 10 12 12 13 13 13 12 12 14 15 13 10 9 8 8 9 9 9
-1 -1 -1 -1 2 2 4 1 1 1 12 11 9 9 8 7 10 5 4 6 8 11 10 11 8 10 11 12 11 15 10 11 13 15 16 14 18 16 14 12 10 8 9 9 7
-1 -1 -1 -1 3 4 2 0 1 3 20 10 8 6 7 10 7 7 4 6 10 10 10 12 11 11 12 12 10 12 10 12 12 15 16 16 17 16 14 14 12 10 9 8 8
-0 -1 -1 1 3 2 1 0 3 13 19 13 8 10 10 9 10 7 7 5 6 9 9 11 8 9 10 9 9 9 12 13 13 15 19 16 16 17 15 13 13 11 10 9 9
-0 -1 0 1 4 1 1 4 14 18 11 13 13 10 11 12 11 10 11 12 13 15 15 11 11 10 8 11 10 10 13 19 20 19 20 16 17 15 13 12 12 13 11 11 10
-0 -0 1 2 2 3 4 10 17 14 13 10 11 11 13 11 11 11 12 14 11 11 14 16 18 11 9 11 13 12 13 19 23 21 20 18 19 16 11 10 10 10 11 11 11
-0 2 3 4 3 4 9 15 15 13 11 11 11 14 14 12 12 12 12 13 11 10 15 16 16 9 10 9 10 12 14 14 19 23 21 19 16 13 12 12 12 12 11 11 11
4 5 5 4 3 6 11 13 13 9 9 10 15 12 16 14 14 13 14 11 11 10 9 13 17 11 12 10 11 11 11 15 16 22 24 20 19 17 15 13 12 12 11 11 11
5 8 5 3 4 9 13 15 11 9 8 11 12 14 13 14 13 14 13 11 9 10 11 12 14 15 13 13 13 14 13 14 14 18 21 22 20 15 13 11 11 12 12 12 12
7 12 4 3 10 12 13 12 9 10 9 11 9 11 13 12 14 14 14 11 8 9 13 13 14 17 14 14 12 13 13 13 16 18 17 18 18 13 12 11 11 13 13 13 12
9 9 4 4 13 12 10 10 10 10 10 11 11 9 10 12 15 13 12 9 8 9 12 13 15 18 17 14 12 13 12 11 13 15 17 18 18 12 13 13 12 13 12 12 12
8 11 8 7 12 12 11 11 12 9 10 9 10 9 11 12 11 13 12 9 9 9 10 11 14 15 17 16 13 14 13 11 13 17 17 14 14 14 14 13 13 12 12 13 12
6 9 9 12 12 12 12 11 12 12 9 8 11 10 12 14 13 13 11 10 9 10 11 12 15 15 13 13 12 13 13 12 13 12 15 13 14 13 13 13 13 13 13 12 11
9 10 9 11 11 12 12 13 14 12 11 12 12 10 10 13 12 13 11 10 11 11 12 12 17 15 17 13 12 14 12 12 11 11 12 13 15 12 12 13 13 12 12 12 12
6 6 8 10 11 13 13 12 11 10 9 9 10 11 11 10 8 8 8 8 9 11 12 15 16 16 20 16 15 17 13 12 12 11 12 14 12 12 12 11 12 12 12 12 11